User: anonymous   Login
Location: Banff
(51.1667°N, 115.5667°W)
Time: 16:03:43
(UTC+00:00)
Language:

Transit 2A Rocket - Orbit

View from above orbital plane
View from above orbital plane
View from above satellite
View from above satellite

Ground track
Ground track

The orbit data is extracted from the following two-line orbital elements,

1    47U 60007C   20330.87740306 +.00000076 +00000-0 +41754-4 0  9995
2    47 066.6662 083.3440 0228764 187.0367 172.7512 14.42114802157957
Epoch (UTC): 25 November 2020 21:03:27
Eccentricity: 0.0228764
inclination: 66.6662°
perigee height: 588 km
apogee height: 914 km
right ascension of ascending node: 83.3440°
argument of perigee: 187.0367°
revolutions per day: 14.42114802
mean anomaly at epoch: 172.7512°
orbit number at epoch: 15795

The dashed part of the orbit path shows where the satellite is in the earth's shadow,  

DLR